Jaipur, India

2:31 PM IST on February 10, 2016 (GMT +0530)
Jaipur

Weather History for VIJP - April, 2013

Change the Weather History Date:

Monday, April 8, 2013

  Actual Average Record
Temperature  
Mean Temperature 86 °F -  
Max Temperature 99 °F - - ()
Min Temperature 74 °F - - ()
Cooling Degree Days 22    
Growing Degree Days 36 (Base 50)    
Moisture  
Dew Point 43 °F    
Average Humidity 21    
Maximum Humidity 43    
Minimum Humidity 8    
Precipitation  
Precipitation 0.00 in - - ()
Sea Level Pressure  
Sea Level Pressure 29.78 in    
Wind  
Wind Speed 3 mph ()    
Max Wind Speed 10 mph    
Max Gust Speed -    
Visibility 2.3 miles    
Events      
T = Trace of Precipitation, MM = Missing Value Source: Averaged Metar Reports

Daily Weather History Graph

Daily Weather History Graph

Search for Another Location

Airport or City:

Trip Planner

Search our weather history database for the weather conditions in past years. The results will help you decide how hot, cold, wet, or windy it might be!

Date:

Astronomy

Apr. 08, 2013 Rise Set
Actual Time 6:10 AM IST 6:47 PM IST
Civil Twilight 5:46 AM IST 7:10 PM IST
Nautical Twilight 5:19 AM IST 7:38 PM IST
Astronomical Twilight 4:51 AM IST 8:06 PM IST
Moon 4:34 AM IST (4/8) 5:01 PM IST (4/8)
Length of Visible Light 13h 24m
Length of Day
12h 37m
Waning Crescent, 5% of the Moon is Illuminated
Apr 8
Waning Crescent
Apr 10
New
Apr 18
First Quarter
Apr 26
Full
May 2
Last Quarter

Hourly Weather History & Observations

Time (IST) Temp. Heat Index Dew Point Humidity Pressure Visibility Wind Dir Wind Speed Gust Speed Precip Events Conditions
12:00 AM 84.2 °F - 41.0 °F 22% 29.80 in 2.2 mi Variable 1.2 mph - N/A   Haze
1:00 AM 84.2 °F - 39.2 °F 20% 29.77 in 2.2 mi NNE 4.6 mph - N/A   Haze
2:00 AM 82.4 °F - 42.8 °F 25% 29.77 in 2.2 mi ENE 8.1 mph - N/A   Haze
2:30 AM 71 °F - 44 °F 26% 29.68 in 1 mi NNE 4.6 mph - -   Haze
3:00 AM 82.4 °F - 44.6 °F 26% 29.74 in 2.2 mi NNE 3.5 mph - N/A   Haze
5:00 AM 75.2 °F - 46.4 °F 36% 29.77 in 2.2 mi Calm Calm - N/A   Haze
5:30 AM 74 °F - 47 °F 28% 29.72 in 1 mi Calm Calm - -   Haze
6:00 AM 77.0 °F - 46.4 °F 34% 29.77 in 2.2 mi Variable 1.2 mph - N/A   Haze
7:00 AM 75.2 °F - 50.0 °F 41% 29.80 in 2.2 mi North 1.2 mph - N/A   Haze
8:00 AM 80.6 °F - 50.0 °F 34% 29.83 in 2.2 mi Calm Calm - N/A   Haze
8:30 AM 82 °F - 50 °F 22% 29.78 in 1 mi Calm Calm - -   Haze
9:00 AM 86.0 °F - 46.4 °F 25% 29.86 in 2.5 mi Variable 2.3 mph - N/A   Haze
9:30 AM 87.8 °F 88.5 °F 62.6 °F 43% 29.86 in 2.5 mi WSW 4.6 mph - N/A   Haze
10:00 AM 87.8 °F - 46.4 °F 24% 29.86 in 2.5 mi WSW 4.6 mph - N/A   Haze
11:00 AM 89.6 °F - 46.4 °F 22% 29.86 in 3.1 mi SSW 3.5 mph - N/A   Haze
11:30 AM 93.2 °F - 46.4 °F 20% 29.86 in 3.1 mi Variable 3.5 mph - N/A   Haze
12:00 PM 93.2 °F - 44.6 °F 19% 29.86 in 3.1 mi South 4.6 mph - N/A   Haze
12:30 PM 93.2 °F - 42.8 °F 17% 29.86 in 3.1 mi SSW 5.8 mph - N/A   Haze
1:00 PM 95.0 °F - 42.8 °F 16% 29.83 in 3.1 mi SW 5.8 mph - N/A   Haze
2:00 PM 96.8 °F - 41.0 °F 15% 29.80 in 3.1 mi Variable 4.6 mph - N/A   Haze
2:30 PM 98 °F - 45 °F 9%  in 2 mi West 4.6 mph - -   Haze
3:00 PM 96.8 °F - 35.6 °F 12% 29.77 in 3.1 mi Variable 10.4 mph - N/A   Haze
4:00 PM 98.6 °F - 35.6 °F 11% 29.74 in 3.1 mi SW 4.6 mph - N/A   Haze
5:00 PM 96.8 °F - 35.6 °F 12% 29.74 in 3.1 mi NW 5.8 mph - N/A   Haze
5:30 PM 96 °F - 41 °F 8% 29.65 in 2 mi NNW 2.3 mph - -   Haze
6:00 PM 95.0 °F - 35.6 °F 12% 29.74 in 3.1 mi NW 5.8 mph - N/A   Haze
7:00 PM 93.2 °F - 35.6 °F 13% 29.77 in 2.2 mi Calm Calm - N/A   Haze
8:00 PM 91.4 °F - 41.0 °F 17% 29.77 in 2.2 mi Calm Calm - N/A   Haze
8:30 PM 92 °F - 43 °F 10% 29.65 in 1 mi SSW 4.6 mph - -   Haze
9:00 PM 89.6 °F - 37.4 °F 16% 29.80 in 2.2 mi WSW 4.6 mph - N/A   Haze
10:00 PM 87.8 °F - 41.0 °F 19% 29.80 in 2.2 mi Calm Calm - N/A   Haze
11:00 PM 87.8 °F - 41.0 °F 19% 29.83 in 2.2 mi NW 3.5 mph - N/A   Haze
11:30 PM 87 °F - 40 °F 11% 29.73 in 1 mi WNW 6.9 mph - -   Haze